Location: ??????
(38.0677°N, 22.9870°E)
Time: 17:53:22
(UTC+00:00)

H-2A R/B - Pass Details

Date: 23 May 2024
Orbit: 732 x 832 km, 98.2° (Epoch: 23 June)

Event Time Altitude Azimuth Distance (km) Brightness Sun altitude
Rises 02:18:59 0° 19° (NNE) 3,379 6.3 -9.6°
Reaches altitude 10° 02:21:27 10° 26° (NNE) 2,446 5.7 -9.2°
Maximum altitude 02:26:39 45° 98° (E) 1,120 3.3 -8.4°
Drops below altitude 10° 02:31:48 10° 171° (S) 2,422 4.3 -7.5°
Sets 02:34:14 0° 177° (S) 3,343 5.0 -7.1°
